Wind_Speed
44 45 45 44 44 45 45 45 45 44 43 43 43 42 42 42 43 43 43 43 43 42 43 43 42 40 40 39 38 37 37 36 36 36 36 37 37 37 37 36 35 35 35
45 46 46 46 46 46 46 46 46 45 45 44 44 44 44 43 43 44 44 43 43 43 42 42 42 41 41 40 39 39 38 37 37 36 37 37 38 38 38 38 37 37 37
45 46 47 47 47 46 46 46 47 46 46 46 45 46 46 45 45 45 44 43 43 43 42 41 41 41 41 41 40 40 40 39 39 38 38 38 39 39 39 39 39 39 38
45 46 47 47 47 47 46 46 47 48 47 47 46 47 47 47 46 46 45 44 44 44 43 42 42 42 42 42 42 41 41 41 40 38 38 40 40 40 40 40 41 41 41
44 45 46 47 47 47 47 47 48 49 49 49 48 48 47 48 47 46 46 44 44 45 45 44 44 44 43 43 43 42 42 42 41 41 39 40 41 41 41 41 41 41 41
44 44 45 46 47 47 47 47 48 49 49 49 49 48 48 48 47 47 47 46 45 46 46 45 44 44 45 44 43 43 42 42 42 42 42 40 41 41 42 43 42 42 42
43 43 44 44 46 46 47 47 48 48 49 49 49 49 48 48 48 48 48 48 47 46 47 47 45 45 45 45 45 44 44 44 44 44 44 42 42 42 42 43 43 43 44
43 44 44 45 45 46 47 47 47 48 49 49 49 49 49 49 49 49 49 49 47 47 47 48 47 46 46 46 46 46 46 45 45 45 46 45 44 44 43 43 44 44 44
43 44 44 44 45 45 46 47 47 48 49 49 50 50 50 50 50 50 50 49 48 47 47 48 48 48 47 47 47 47 47 47 47 47 47 47 46 45 44 44 44 45 45
43 44 44 44 45 46 47 47 47 48 49 49 50 50 50 50 50 51 51 51 50 49 48 49 49 50 49 49 49 49 49 48 48 48 48 48 48 47 46 46 46 47 47
44 44 44 45 44 45 46 47 47 47 48 49 49 50 50 50 50 51 52 52 52 51 50 50 51 51 51 50 50 50 50 50 50 50 50 49 49 48 47 47 47 47 48
43 44 44 44 44 44 45 45 46 47 47 48 49 49 49 49 50 50 51 51 52 52 51 51 51 52 51 51 51 51 51 51 50 50 50 50 50 50 50 50 49 49 49
42 43 43 43 43 44 44 44 45 46 47 47 47 48 48 49 49 49 50 51 51 51 51 51 51 52 52 51 51 51 51 51 51 51 51 51 51 51 52 52 51 50 50
41 42 42 42 42 43 43 43 44 45 45 45 46 47 47 47 48 48 49 51 51 51 51 50 51 51 52 52 52 51 52 52 52 51 52 52 52 51 52 51 50 50 50
40 40 41 41 41 41 42 42 43 43 44 45 45 46 46 46 47 47 48 50 51 51 51 50 50 51 52 52 52 51 52 52 52 51 51 51 51 52 52 52 51 51 50
39 39 39 39 39 40 40 40 41 42 43 44 44 45 45 46 47 47 48 48 49 50 51 50 50 50 51 51 51 51 51 51 51 51 51 51 51 52 52 52 52 51 50
37 38 37 38 38 38 38 38 39 40 41 41 42 43 44 44 46 47 48 48 48 49 50 50 49 50 50 50 51 51 50 50 50 50 50 50 50 51 52 52 52 51 51
36 37 37 37 36 36 36 37 37 38 39 39 39 40 42 43 43 44 45 46 47 48 48 48 47 48 48 49 49 50 49 49 49 49 50 50 50 50 51 51 52 51 51
36 36 36 35 34 34 35 35 36 36 36 37 36 37 38 40 41 42 43 43 44 46 47 47 46 46 47 47 48 49 48 48 49 48 49 49 50 51 51 51 51 51 51
34 34 33 34 33 32 32 32 33 33 33 34 34 34 35 36 38 39 40 41 42 43 44 45 46 46 46 46 46 47 48 48 48 48 48 48 49 50 50 50 51 51 51
33 33 33 32 32 31 32 32 32 32 32 32 33 33 33 33 34 36 37 38 39 41 42 43 44 44 44 44 46 46 47 47 46 47 47 48 48 48 48 49 49 49 49
32 32 32 31 30 30 31 31 31 31 31 31 31 31 31 31 32 33 34 35 36 38 39 41 41 42 42 43 44 45 45 46 46 46 47 47 48 48 48 47 48 48 49
33 32 31 31 30 30 29 29 29 29 29 30 30 31 31 32 32 32 33 33 34 36 37 38 39 40 41 42 43 43 44 45 46 46 46 46 47 47 47 46 46 47 48
32 31 30 29 29 30 30 29 28 29 29 30 30 29 30 32 32 32 32 33 34 35 35 36 37 38 39 40 40 41 42 43 44 44 45 46 46 46 46 46 46 47 48
30 30 29 28 28 28 29 30 30 30 30 30 31 32 32 32 32 33 33 32 32 33 34 34 35 37 38 39 39 39 40 41 42 43 43 44 44 45 44 44 45 46 47
29 28 28 27 27 27 28 29 30 30 31 31 32 33 33 32 32 33 33 34 33 33 33 34 35 36 37 37 37 38 39 39 40 41 42 42 43 43 43 44 45 45 46
Wind_Direction
265 265 265 265 264 263 262 261 260 259 259 260 261 260 260 260 260 260 260 261 261 262 260 258 257 256 256 256 256 256 254 253 251 250 250 251 250 249 248 248 249 249 248
266 265 265 264 265 264 262 260 259 258 258 259 260 260 260 259 260 260 260 261 261 261 260 258 256 256 255 255 255 255 253 251 251 250 250 249 249 249 248 248 248 248 248
266 265 265 264 264 263 261 259 258 258 258 259 260 260 260 260 260 261 261 260 259 258 258 258 257 256 255 254 254 253 253 252 251 252 251 250 248 248 248 249 249 248 247
268 266 265 263 262 262 261 259 258 257 258 259 260 261 261 260 260 260 260 258 258 257 257 258 258 256 255 255 255 254 253 253 251 251 252 252 251 251 250 249 249 247 247
270 268 266 264 262 261 261 259 258 258 258 259 260 260 261 261 260 260 259 258 257 257 257 257 257 256 256 255 255 254 253 253 252 252 253 254 253 253 252 250 249 249 247
272 269 267 265 263 262 261 259 259 258 259 259 260 261 260 260 259 259 258 257 256 256 256 256 256 257 256 255 254 253 252 253 253 253 254 254 254 254 253 251 250 250 249
272 270 267 265 263 262 261 259 259 259 259 259 259 260 259 258 258 258 257 257 256 255 254 255 255 257 257 255 254 253 252 253 253 254 254 254 253 254 253 252 251 251 250
273 271 269 268 266 264 262 261 260 259 259 258 258 258 259 258 258 257 256 256 255 255 254 254 254 256 256 255 253 253 253 253 254 254 254 254 255 255 255 254 252 252 250
275 272 270 269 267 266 264 263 261 260 259 258 257 258 258 258 258 257 256 255 254 254 254 254 254 255 256 255 255 254 254 254 254 254 253 254 254 255 255 254 254 253 252
277 273 271 270 269 268 266 264 262 261 260 260 259 258 259 258 257 256 256 255 254 254 254 254 254 254 255 256 255 255 254 254 254 254 253 254 254 255 255 254 255 255 254
278 275 272 271 271 270 267 265 264 262 261 260 260 259 259 259 257 256 256 256 255 254 254 254 254 254 255 255 255 255 254 254 254 253 253 254 254 255 255 254 255 256 255
279 277 275 274 272 271 269 266 264 263 262 262 261 260 260 259 258 256 256 256 255 255 254 254 253 253 254 254 254 254 254 253 254 254 254 254 255 255 254 255 256 257 256
281 279 277 276 273 271 269 267 265 263 263 262 261 260 260 259 258 257 257 256 255 254 254 253 253 253 252 253 253 254 254 254 254 254 255 255 256 256 255 256 256 256 256
283 281 279 277 276 274 271 269 266 264 263 263 261 260 260 260 258 256 256 255 255 254 253 253 252 252 252 253 254 254 254 254 255 255 256 256 256 256 255 255 256 256 256
284 282 281 279 278 276 273 270 267 265 264 263 261 261 260 259 259 257 255 254 253 253 252 252 252 252 252 253 253 254 255 254 254 255 256 256 256 255 255 255 255 256 255
285 283 282 280 279 277 274 272 269 267 266 264 262 262 261 260 258 257 255 254 253 252 252 253 253 253 253 253 254 254 254 254 254 254 255 256 256 255 254 255 255 255 255
286 285 282 281 280 278 276 274 271 268 266 264 262 262 261 260 259 258 256 255 254 253 253 253 254 253 253 253 254 254 254 254 254 254 255 256 256 256 255 254 254 254 256
288 286 285 282 281 278 275 274 272 269 265 263 263 263 261 260 259 257 256 256 254 253 252 253 253 252 253 253 254 253 254 254 254 255 256 256 255 255 255 255 255 255 255
290 288 287 284 282 279 275 273 271 269 266 262 263 262 261 260 258 257 257 257 255 254 253 253 252 253 253 253 252 252 254 255 256 256 256 255 255 254 254 256 256 255 255
291 289 288 286 282 279 276 273 271 268 266 263 264 263 262 261 259 258 259 258 257 255 253 253 254 254 254 253 253 254 254 256 256 256 257 257 256 255 256 257 257 256 256
292 289 287 287 283 279 275 273 270 268 266 265 265 262 262 263 262 260 260 259 258 256 254 254 255 256 255 255 255 254 255 257 257 257 257 257 256 256 257 258 257 257 256
292 290 287 285 283 279 275 273 270 267 265 264 264 263 263 263 263 261 261 260 259 257 255 255 255 256 256 256 256 257 257 258 258 258 257 256 255 256 257 258 258 257 256
292 290 288 284 282 279 275 273 269 266 265 264 264 264 264 263 263 263 263 261 259 258 257 256 256 256 257 257 259 259 258 259 259 259 257 256 256 255 256 258 258 257 256
293 291 289 285 281 278 275 273 270 267 266 265 265 264 263 263 262 264 265 262 260 260 259 257 256 256 257 258 259 258 257 258 259 258 257 256 256 256 257 257 257 257 256
293 291 289 286 282 279 277 274 272 270 269 268 268 266 266 266 266 264 264 264 263 263 262 260 259 258 258 258 259 258 257 258 258 258 257 256 256 255 255 256 256 256 256
292 291 289 286 282 280 278 275 273 271 270 269 268 267 267 267 267 266 266 265 264 264 263 263 262 261 260 259 259 259 258 258 258 258 258 258 257 257 258 258 257 256 256
Height
5698 5698 5699 5701 5702 5703 5704 5705 5706 5708 5709 5711 5712 5713 5715 5716 5718 5719 5720 5721 5721 5722 5723 5724 5726 5727 5729 5730 5732 5733 5735 5738 5741 5744 5747 5751 5754 5758 5762 5766 5769 5772 5775
5685 5686 5687 5688 5689 5690 5692 5693 5694 5696 5698 5699 5701 5702 5703 5705 5707 5708 5708 5709 5710 5711 5712 5714 5715 5717 5719 5720 5722 5724 5726 5729 5731 5734 5738 5742 5746 5749 5753 5757 5760 5763 5766
5673 5673 5674 5675 5676 5677 5678 5680 5682 5684 5685 5687 5689 5690 5691 5693 5695 5696 5697 5698 5699 5700 5701 5703 5704 5706 5708 5710 5712 5714 5717 5719 5722 5724 5728 5732 5736 5740 5744 5747 5750 5753 5756
5660 5660 5660 5661 5662 5664 5665 5667 5669 5671 5673 5674 5676 5677 5679 5681 5682 5684 5685 5686 5687 5689 5690 5692 5694 5696 5698 5700 5702 5704 5707 5710 5713 5715 5718 5722 5726 5729 5734 5737 5739 5742 5746
5647 5647 5647 5647 5648 5650 5651 5653 5655 5657 5659 5661 5663 5664 5666 5668 5669 5671 5673 5674 5676 5677 5679 5681 5683 5685 5687 5689 5692 5694 5696 5699 5703 5706 5708 5711 5714 5718 5722 5726 5729 5732 5735
5634 5634 5633 5634 5635 5636 5637 5639 5641 5643 5645 5647 5649 5650 5652 5654 5656 5658 5660 5662 5664 5666 5668 5670 5672 5674 5676 5679 5681 5683 5686 5689 5692 5695 5697 5700 5703 5707 5710 5714 5718 5721 5725
5621 5621 5620 5620 5621 5622 5623 5625 5627 5629 5631 5633 5635 5637 5638 5640 5643 5645 5647 5649 5652 5654 5656 5658 5660 5662 5665 5667 5670 5673 5675 5678 5681 5683 5687 5689 5692 5695 5699 5702 5706 5710 5713
5608 5607 5607 5608 5608 5609 5610 5611 5613 5615 5617 5619 5621 5623 5624 5627 5629 5631 5634 5636 5639 5641 5643 5646 5648 5651 5653 5656 5659 5661 5664 5666 5669 5672 5675 5678 5681 5683 5687 5691 5694 5698 5702
5596 5594 5594 5595 5595 5595 5596 5597 5599 5601 5603 5605 5607 5609 5611 5613 5615 5617 5620 5622 5625 5628 5630 5633 5636 5638 5641 5643 5646 5649 5652 5654 5657 5660 5663 5666 5668 5671 5675 5678 5681 5685 5689
5583 5582 5581 5581 5582 5582 5582 5583 5585 5587 5588 5590 5592 5594 5596 5598 5601 5603 5606 5608 5611 5614 5617 5620 5622 5625 5628 5630 5633 5636 5639 5642 5644 5647 5650 5653 5656 5658 5661 5665 5668 5671 5675
5571 5570 5569 5568 5568 5568 5568 5569 5571 5572 5574 5576 5577 5579 5581 5583 5585 5588 5591 5594 5596 5599 5603 5606 5609 5611 5614 5617 5620 5623 5626 5628 5631 5634 5637 5640 5642 5645 5648 5651 5654 5658 5661
5559 5557 5556 5555 5555 5555 5554 5555 5556 5558 5559 5561 5562 5565 5567 5569 5571 5574 5576 5579 5582 5585 5588 5591 5594 5597 5600 5603 5606 5609 5612 5615 5618 5620 5623 5626 5629 5632 5634 5637 5640 5644 5647
5548 5546 5544 5543 5542 5542 5541 5541 5542 5543 5545 5546 5548 5550 5552 5554 5557 5559 5562 5564 5567 5570 5574 5577 5580 5583 5586 5589 5592 5595 5598 5601 5604 5607 5610 5612 5615 5618 5621 5623 5626 5630 5633
5536 5534 5532 5531 5530 5529 5528 5528 5529 5529 5531 5532 5533 5536 5538 5540 5542 5545 5547 5550 5553 5556 5559 5563 5566 5569 5572 5575 5578 5581 5584 5587 5590 5593 5595 5598 5600 5603 5606 5609 5612 5615 5617
5526 5523 5521 5520 5518 5517 5516 5515 5515 5516 5517 5518 5520 5522 5524 5526 5528 5530 5532 5535 5538 5542 5545 5549 5552 5555 5558 5561 5564 5567 5570 5573 5576 5578 5581 5583 5586 5588 5591 5594 5597 5600 5602
5515 5513 5511 5509 5507 5506 5504 5503 5503 5503 5504 5505 5506 5508 5510 5512 5514 5516 5518 5521 5524 5527 5531 5534 5538 5541 5544 5546 5549 5552 5555 5558 5561 5564 5567 5569 5572 5574 5576 5579 5582 5585 5588
5505 5503 5501 5499 5497 5495 5494 5493 5492 5491 5491 5492 5494 5495 5496 5498 5500 5502 5504 5507 5510 5514 5517 5520 5524 5527 5530 5532 5535 5537 5540 5544 5547 5550 5553 5555 5558 5559 5562 5565 5567 5570 5573
5496 5493 5491 5488 5487 5485 5483 5482 5481 5481 5481 5481 5482 5482 5484 5485 5487 5488 5491 5494 5497 5500 5503 5506 5510 5513 5516 5519 5521 5524 5527 5530 5533 5536 5538 5541 5544 5545 5548 5550 5553 5556 5559
5486 5484 5481 5478 5477 5475 5474 5473 5472 5471 5471 5471 5471 5472 5472 5473 5475 5476 5479 5481 5484 5487 5490 5493 5496 5500 5503 5505 5508 5510 5513 5517 5520 5522 5524 5526 5529 5532 5533 5535 5538 5542 5545
5477 5474 5472 5469 5467 5466 5464 5463 5462 5461 5462 5462 5462 5461 5462 5462 5463 5465 5467 5470 5472 5475 5478 5481 5484 5487 5490 5493 5495 5497 5500 5503 5507 5509 5510 5513 5515 5517 5519 5520 5523 5527 5531
5468 5465 5463 5460 5458 5456 5455 5454 5453 5453 5453 5452 5452 5452 5453 5453 5454 5455 5457 5459 5461 5463 5466 5470 5472 5475 5478 5480 5482 5484 5486 5489 5492 5495 5497 5499 5501 5503 5505 5506 5509 5512 5515
5459 5456 5454 5451 5449 5448 5447 5446 5445 5444 5444 5444 5444 5444 5444 5445 5445 5446 5448 5449 5451 5453 5455 5458 5461 5463 5465 5467 5470 5472 5473 5475 5478 5481 5484 5486 5487 5489 5491 5493 5495 5498 5500
5451 5448 5445 5443 5441 5439 5438 5437 5437 5436 5436 5436 5436 5436 5436 5437 5437 5438 5439 5440 5441 5443 5445 5447 5449 5452 5454 5456 5457 5459 5460 5462 5464 5466 5469 5472 5473 5475 5478 5480 5482 5484 5486
5442 5440 5437 5435 5433 5431 5430 5429 5429 5428 5428 5428 5428 5428 5428 5429 5429 5429 5429 5430 5432 5433 5435 5436 5439 5441 5443 5444 5445 5446 5447 5449 5450 5452 5455 5457 5459 5461 5464 5466 5469 5471 5473
5434 5431 5429 5427 5425 5423 5422 5421 5420 5420 5420 5420 5420 5420 5420 5420 5420 5421 5421 5421 5422 5422 5424 5426 5428 5430 5432 5433 5433 5434 5436 5437 5438 5439 5442 5444 5446 5448 5451 5453 5455 5457 5460
5426 5423 5421 5419 5417 5416 5414 5413 5412 5412 5412 5412 5412 5412 5412 5412 5412 5412 5412 5412 5412 5413 5414 5415 5417 5418 5420 5421 5422 5423 5424 5425 5426 5427 5429 5432 5433 5435 5437 5440 5442 5444 5447